sat.trackr.live / text

‹ back to catalog

KUIPER-00432

NORAD 68937 · 2026-098U

PAYLOAD ACTIVE UNKNOWN

§ Identity

Operator
Country
US
Launch date
2026-04-30
Launch site
FRGUI
Launch vehicle
Mass (kg)
RCS (m²)

External: N2YO · Heavens-Above · Gunter

§ Orbital elements

Epoch: 2026-05-25T01:47:29.536224Z

Period
93.95 min
Inclination
51.8737°
Eccentricity
0.0013283
Mean motion
15.32751274 rev/d
Perigee alt
458.5 km
Apogee alt
476.7 km
Semi-major
6,845.7 km
B*
-7.0135e-4
RAAN
179.3448°
Arg perigee
68.7423°
Mean anomaly
291.4979°
Rev number
379

§ Raw data

KUIPER-004321 68937U 26098U   26145.07464741 -.00022890  00000+0 -70135-3 0  99902 68937  51.8737 179.3448 0013283  68.7423 291.4979 15.32751274  3796

JSON: /api/v1/satellites/68937 · /tle

For live sub-satellite position, see the globe view (requires WebGL).

§ Visibility from observer

Set your observer location to see the next 7 days of passes ≥ 10°. The values pass through the URL so the page stays shareable.

No JS? Fill the form by hand. The geolocation button needs JavaScript.